Home > Weather > Monaco > Past weeks

Flag for Monaco Weather for the Past 2 Weeks in Monaco, Monaco

Now
64 °F

Passing clouds.


Feels Like: 64 °F
Forecast: 49 / 67 °F
Wind: 15 mph from East

Location: Nice Airport

Current Time: May 5, 2016 at 11:06:01 AM

Latest Report: May 5, 2016 at 10:30 AM


Visibility: N/A

Pressure: 30.09 "Hg

Humidity: 68%

Dew Point: 54 °F

Location of MonacoLocation

Historic Weather in Monaco — Graph

°F

Monaco Temperature Yesterday

Maximum temperature yesterday: 68 °F (at 9:30 AM)
Minimum temperature yesterday: 57 °F (at 4:00 AM)
Average temperature yesterday: 63 °F

High & Low Weather Summary for the Past Weeks

 TemperatureHumidityPressure
High72 °F (Apr 27, 2:30 PM)94% (Apr 23, 2:00 AM)30.18 "Hg (Apr 23, 2:00 AM)
Low48 °F (Apr 26, 5:00 AM)19% (Apr 27, 11:00 PM)29.50 "Hg (Apr 24, 5:00 PM)
Average60 °F58%29.89 "Hg
* Reported Apr 20 10:00 AM — May 5 10:00 AM, Monaco, Weather by CustomWeather, © 2016

Note: Actual official high and low records may vary slightly from our data, if they occured in-between our weather recording intervals... More about our weather records

Advertising

Monaco Weather History for the Previous 24 Hours

Scroll right to see more
 ConditionsComfort  
Time TempWeatherWind HumidityBarometerVisibility
10:00 AM
Thu, May 5
64 °FPassing clouds.12 mph64%30.09 "HgN/A
9:30 AM64 °FPassing clouds.13 mph60%30.07 "HgN/A
9:00 AM64 °FSunny.10 mph64%30.07 "Hg10 mi
8:30 AM63 °FPassing clouds.5 mph52%30.07 "HgN/A
8:00 AM61 °FPassing clouds.5 mph45%30.04 "HgN/A
7:30 AM59 °FPassing clouds.3 mph48%30.04 "HgN/A
7:00 AM57 °FPassing clouds.5 mph48%30.04 "HgN/A
6:30 AM57 °FPassing clouds.6 mph48%30.04 "HgN/A
6:00 AM57 °FClear.3 mph48%30.04 "Hg10 mi
5:30 AM57 °FClear.3 mph48%30.01 "Hg10 mi
5:00 AM57 °FClear.5 mph48%30.01 "Hg10 mi
4:30 AM59 °FClear.8 mph42%30.01 "Hg10 mi
4:00 AM61 °FPassing clouds.12 mph39%30.01 "HgN/A
3:30 AM59 °FClear.12 mph42%30.01 "Hg10 mi
3:00 AM59 °FClear.10 mph42%30.04 "Hg10 mi
2:30 AM59 °FClear.9 mph42%30.04 "Hg10 mi
2:00 AM59 °FClear.10 mph42%30.04 "Hg10 mi
1:30 AM57 °FClear.12 mph44%30.04 "Hg10 mi
1:00 AM57 °FClear.9 mph44%30.04 "Hg10 mi
12:30 AM59 °FClear.8 mph42%30.04 "Hg10 mi
12:00 AM59 °FClear.7 mph45%30.04 "Hg10 mi
11:30 PM
Wed, May 4
59 °FClear.9 mph42%30.04 "Hg10 mi
11:07 PM59 °FClear.8 mph42%30.04 "Hg10 mi
10:30 PM61 °FClear.5 mph45%30.04 "Hg10 mi
10:00 PM61 °FClear.No wind63%30.04 "Hg10 mi
9:30 PM63 °FSunny.1 mph64%30.04 "Hg10 mi
9:00 PM63 °FSunny.2 mph59%30.04 "Hg10 mi
8:30 PM63 °FSunny.2 mph56%30.04 "Hg10 mi
8:00 PM64 °FSunny.2 mph56%30.04 "Hg10 mi
7:30 PM66 °FSunny.6 mph49%30.04 "Hg10 mi
7:00 PM66 °FSunny.8 mph52%30.04 "Hg10 mi
6:30 PM66 °FSunny.7 mph56%30.04 "Hg10 mi
6:00 PM66 °FSunny.7 mph60%30.07 "Hg10 mi
5:30 PM66 °FSunny.7 mph60%30.04 "Hg10 mi
5:00 PM66 °FPassing clouds.6 mph64%30.04 "HgN/A
4:30 PM66 °FPassing clouds.7 mph60%30.04 "HgN/A
4:00 PM66 °FPassing clouds.8 mph60%30.04 "HgN/A
3:30 PM66 °FPassing clouds.9 mph64%30.07 "HgN/A
3:00 PM66 °FPassing clouds.9 mph60%30.07 "HgN/A
2:30 PM66 °FPassing clouds.10 mph60%30.07 "HgN/A
2:00 PM64 °FPassing clouds.12 mph64%30.07 "HgN/A
1:30 PM66 °FPassing clouds.12 mph60%30.07 "HgN/A
1:00 PM66 °FPassing clouds.10 mph56%30.07 "HgN/A
12:30 PM66 °FPassing clouds.14 mph60%30.07 "HgN/A
12:00 PM64 °FSunny.12 mph64%30.07 "Hg10 mi
11:30 AM64 °FSunny.12 mph64%30.07 "Hg10 mi
11:00 AM64 °FSunny.10 mph60%30.07 "Hg10 mi
Weather by CustomWeather, © 2016

See weather overviewHow to use our weather pages